• In Austria
  • List of Countries
  • For 7 days
  • Water Temperature
  • Satellite Maps
  • Weather Map
  • News
  • Weather Widgets
  • user-avatar
    Login

    Hourly Weather Preston

    Today, 19 September, Wednesday

    Time Temperature Precipitation Wind Pressure Humidity
    00:00 +15°C° 0 mm 7 mps 751 mmHg 85%
    01:00 +15°C° 0 mm 6 mps 751 mmHg 86%
    02:00 +14°C° 0 mm 6 mps 751 mmHg 88%
    03:00 +14°C° 0 mm 6 mps 752 mmHg 89%
    04:00 +14°C° 0.1 mm 6 mps 751 mmHg 89%
    05:00 +14°C° 0.1 mm 7 mps 751 mmHg 90%
    06:00 +14°C° 0.1 mm 7 mps 750 mmHg 90%
    07:00 +15°C° 0.1 mm 8 mps 750 mmHg 86%
    08:00 +15°C° 0.1 mm 9 mps 749 mmHg 83%
    09:00 +16°C° 0.1 mm 11 mps 749 mmHg 79%
    10:00 +15°C° 0.5 mm 12 mps 749 mmHg 80%
    11:00 +15°C° 0.5 mm 12 mps 749 mmHg 81%
    12:00 +15°C° 0.5 mm 13 mps 749 mmHg 82%
    13:00 +15°C° 0.2 mm 12 mps 749 mmHg 76%
    14:00 +14°C° 0.2 mm 12 mps 750 mmHg 71%
    15:00 +14°C° 0.2 mm 11 mps 751 mmHg 65%
    16:00 +13°C° 0 mm 11 mps 751 mmHg 65%
    17:00 +12°C° 0 mm 10 mps 752 mmHg 64%
    18:00 +12°C° 0 mm 9 mps 753 mmHg 64%
    19:00 +12°C° 0 mm 9 mps 753 mmHg 64%
    20:00 +11°C° 0 mm 9 mps 754 mmHg 63%
    21:00 +11°C° 0 mm 9 mps 755 mmHg 63%
    22:00 +11°C° 0.1 mm 8 mps 755 mmHg 65%
    23:00 +10°C° 0.1 mm 8 mps 755 mmHg 68%

    Tomorrow, 20 September, Thursday

    Time Temperature Precipitation Wind Pressure Humidity
    00:00 +10°C° 0.1 mm 8 mps 755 mmHg 71%
    01:00 +10°C° 0.4 mm 7 mps 755 mmHg 76%
    02:00 +10°C° 0.4 mm 6 mps 754 mmHg 80%
    03:00 +9°C° 0.4 mm 6 mps 754 mmHg 85%
    04:00 +9°C° 0.6 mm 5 mps 754 mmHg 87%
    05:00 +10°C° 0.6 mm 4 mps 754 mmHg 88%
    06:00 +10°C° 0.6 mm 4 mps 754 mmHg 89%
    07:00 +10°C° 0.1 mm 4 mps 754 mmHg 88%
    08:00 +11°C° 0.1 mm 3 mps 754 mmHg 86%
    09:00 +11°C° 0.1 mm 3 mps 754 mmHg 85%
    10:00 +12°C° 0 mm 3 mps 753 mmHg 80%
    11:00 +14°C° 0 mm 2 mps 753 mmHg 75%
    12:00 +15°C° 0 mm 2 mps 752 mmHg 70%
    13:00 +14°C° 0.8 mm 2 mps 751 mmHg 76%
    14:00 +13°C° 0.8 mm 3 mps 750 mmHg 81%
    15:00 +13°C° 0.8 mm 3 mps 749 mmHg 86%
    16:00 +13°C° 3.5 mm 4 mps 747 mmHg 89%
    17:00 +14°C° 3.5 mm 5 mps 746 mmHg 91%
    18:00 +14°C° 3.5 mm 6 mps 744 mmHg 93%
    19:00 +15°C° 1.3 mm 7 mps 743 mmHg 93%
    20:00 +15°C° 1.3 mm 7 mps 742 mmHg 92%
    21:00 +16°C° 1.3 mm 8 mps 741 mmHg 91%
    22:00 +15°C° 0.7 mm 9 mps 741 mmHg 89%
    23:00 +13°C° 0.7 mm 10 mps 741 mmHg 87%

    Day after tomorrow, 21 September, Friday

    Time Temperature Precipitation Wind Pressure Humidity
    00:00 +12°C° 0.7 mm 11 mps 740 mmHg 86%
    01:00 +10°C° 0.3 mm 12 mps 742 mmHg 84%
    02:00 +9°C° 0.3 mm 12 mps 743 mmHg 82%
    03:00 +7°C° 0.3 mm 12 mps 744 mmHg 80%
    04:00 +7°C° 0.4 mm 12 mps 745 mmHg 79%
    05:00 +7°C° 0.4 mm 11 mps 746 mmHg 77%
    06:00 +7°C° 0.4 mm 11 mps 747 mmHg 76%
    07:00 +8°C° 0.2 mm 10 mps 748 mmHg 75%
    08:00 +8°C° 0.2 mm 10 mps 748 mmHg 73%
    09:00 +8°C° 0.2 mm 9 mps 749 mmHg 72%
    10:00 +10°C° 0.3 mm 9 mps 749 mmHg 72%
    11:00 +9°C° 0.3 mm 10 mps 750 mmHg 72%
    12:00 +11°C° 0.3 mm 10 mps 750 mmHg 72%
    13:00 +11°C° 0.5 mm 10 mps 751 mmHg 72%
    14:00 +11°C° 0.5 mm 10 mps 752 mmHg 73%
    15:00 +11°C° 0.5 mm 11 mps 753 mmHg 74%
    16:00 +11°C° 0.2 mm 10 mps 754 mmHg 75%
    17:00 +10°C° 0.2 mm 9 mps 754 mmHg 75%
    18:00 +10°C° 0.2 mm 9 mps 755 mmHg 76%
    19:00 +10°C° 0.1 mm 8 mps 756 mmHg 76%
    20:00 +9°C° 0.1 mm 8 mps 757 mmHg 77%
    21:00 +9°C° 0.1 mm 7 mps 758 mmHg 78%
    22:00 +9°C° 0 mm 7 mps 758 mmHg 78%
    23:00 +8°C° 0 mm 7 mps 759 mmHg 78%

    22 September, Saturday

    Time Temperature Precipitation Wind Pressure Humidity
    00:00 +8°C° 0 mm 7 mps 759 mmHg 77%
    01:00 +8°C° 0 mm 7 mps 760 mmHg 78%
    02:00 +8°C° 0 mm 7 mps 760 mmHg 78%
    03:00 +8°C° 0 mm 7 mps 760 mmHg 78%
    04:00 +6°C° 0.1 mm 7 mps 761 mmHg 78%
    05:00 +7°C° 0.1 mm 6 mps 761 mmHg 78%
    06:00 +7°C° 0.1 mm 6 mps 761 mmHg 78%
    07:00 +8°C° 0.1 mm 6 mps 762 mmHg 75%
    08:00 +9°C° 0.1 mm 6 mps 762 mmHg 72%
    09:00 +10°C° 0.1 mm 7 mps 762 mmHg 69%
    10:00 +11°C° 0.1 mm 6 mps 763 mmHg 67%
    11:00 +11°C° 0.1 mm 6 mps 763 mmHg 64%
    12:00 +13°C° 0.1 mm 6 mps 763 mmHg 62%
    13:00 +13°C° 0 mm 6 mps 763 mmHg 62%
    14:00 +13°C° 0 mm 5 mps 763 mmHg 62%
    15:00 +12°C° 0 mm 5 mps 762 mmHg 62%
    16:00 +12°C° 0 mm 4 mps 762 mmHg 65%
    17:00 +11°C° 0 mm 3 mps 762 mmHg 68%
    18:00 +10°C° 0 mm 2 mps 762 mmHg 71%
    19:00 +10°C° 0 mm 2 mps 762 mmHg 70%
    20:00 +10°C° 0 mm 2 mps 762 mmHg 70%
    21:00 +10°C° 0 mm 2 mps 762 mmHg 70%
    22:00 +9°C° 0.9 mm 3 mps 761 mmHg 75%
    23:00 +8°C° 0.9 mm 4 mps 760 mmHg 80%

    23 September, Sunday

    Time Temperature Precipitation Wind Pressure Humidity
    00:00 +7°C° 0.9 mm 5 mps 758 mmHg 85%
    01:00 +7°C° 3 mm 6 mps 756 mmHg 87%
    02:00 +7°C° 3 mm 8 mps 754 mmHg 88%
    03:00 +7°C° 3 mm 10 mps 752 mmHg 90%
    04:00 +7°C° 3.6 mm 10 mps 749 mmHg 91%
    05:00 +8°C° 3.6 mm 11 mps 746 mmHg 92%
    06:00 +9°C° 3.6 mm 11 mps 744 mmHg 93%
    07:00 +11°C° 3.8 mm 10 mps 741 mmHg 93%
    08:00 +13°C° 3.8 mm 9 mps 738 mmHg 93%
    09:00 +16°C° 3.8 mm 8 mps 736 mmHg 93%
    10:00 +15°C° 1.9 mm 8 mps 735 mmHg 91%
    11:00 +15°C° 1.9 mm 7 mps 734 mmHg 89%
    12:00 +14°C° 1.9 mm 7 mps 732 mmHg 88%
    13:00 +12°C° 0.7 mm 11 mps 735 mmHg 85%
    14:00 +10°C° 0.7 mm 15 mps 737 mmHg 83%
    15:00 +8°C° 0.7 mm 19 mps 739 mmHg 81%
    16:00 +7°C° 0.4 mm 17 mps 743 mmHg 79%
    17:00 +7°C° 0.4 mm 16 mps 747 mmHg 77%
    18:00 +6°C° 0.4 mm 15 mps 752 mmHg 74%
    19:00 +7°C° 0 mm 13 mps 754 mmHg 73%
    20:00 +5°C° 0 mm 12 mps 757 mmHg 72%
    21:00 +6°C° 0 mm 11 mps 760 mmHg 70%
    22:00 +6°C° 0 mm 10 mps 761 mmHg 70%
    23:00 +5°C° 0 mm 9 mps 763 mmHg 69%

    24 September, Monday

    Time Temperature Precipitation Wind Pressure Humidity
    00:00 +5°C° 0 mm 8 mps 764 mmHg 69%
    01:00 +4°C° 0 mm 7 mps 766 mmHg 69%
    02:00 +4°C° 0 mm 7 mps 767 mmHg 69%
    03:00 +4°C° 0 mm 6 mps 768 mmHg 69%
    04:00 +5°C° 0 mm 5 mps 769 mmHg 71%
    05:00 +3°C° 0 mm 5 mps 770 mmHg 72%
    06:00 +4°C° 0 mm 4 mps 771 mmHg 74%
    07:00 +6°C° 0 mm 4 mps 771 mmHg 72%
    08:00 +7°C° 0 mm 4 mps 772 mmHg 70%
    09:00 +10°C° 0 mm 4 mps 772 mmHg 68%
    10:00 +11°C° 0 mm 4 mps 773 mmHg 66%
    11:00 +12°C° 0 mm 5 mps 773 mmHg 64%
    12:00 +13°C° 0 mm 5 mps 774 mmHg 62%
    13:00 +12°C° 0.1 mm 5 mps 774 mmHg 63%
    14:00 +12°C° 0.1 mm 5 mps 774 mmHg 65%
    15:00 +12°C° 0.1 mm 5 mps 774 mmHg 66%
    16:00 +10°C° 0 mm 5 mps 774 mmHg 69%
    17:00 +10°C° 0 mm 5 mps 774 mmHg 72%
    18:00 +10°C° 0 mm 4 mps 774 mmHg 75%
    19:00 +8°C° 0 mm 4 mps 774 mmHg 77%
    20:00 +9°C° 0 mm 3 mps 775 mmHg 78%
    21:00 +8°C° 0 mm 3 mps 775 mmHg 79%
    22:00 +8°C° 0 mm 3 mps 775 mmHg 81%
    23:00 +8°C° 0 mm 3 mps 775 mmHg 82%
    Show more